TimeIST,TemperatureF,Dew PointF,Humidity,Sea Level PressureIn,VisibilityMPH,Wind Direction,Wind SpeedMPH,Gust SpeedMPH,PrecipitationIn,Events,Conditions,WindDirDegrees,DateUTC
12:00 AM,42.8,39.2,87,29.89,6.2,SW,5.8,-,N/A,,Mostly Cloudy,230,2011-10-17 23:00:00
12:30 AM,41.0,39.2,93,29.89,6.2,WSW,6.9,-,N/A,,Mostly Cloudy,240,2011-10-17 23:30:00
1:00 AM,42,39,83,29.91,25,WSW,8.9,,,,Scattered Clouds,240,2011-10-18 00:00:00
1:00 AM,41.0,39.2,93,29.89,6.2,WSW,9.2,-,N/A,,Mostly Cloudy,240,2011-10-18 00:00:00
1:30 AM,41.0,39.2,93,29.89,6.2,WSW,8.1,-,N/A,,Mostly Cloudy,250,2011-10-18 00:30:00
2:00 AM,42.8,37.4,81,29.89,6.2,WSW,8.1,-,N/A,,Scattered Clouds,250,2011-10-18 01:00:00
2:30 AM,41.0,37.4,87,29.89,6.2,WSW,10.4,-,N/A,,Partly Cloudy,250,2011-10-18 01:30:00
3:00 AM,42.8,39.2,87,29.89,6.2,West,12.7,-,N/A,,Mostly Cloudy,260,2011-10-18 02:00:00
3:30 AM,41.0,39.2,93,29.89,6.2,West,10.4,-,N/A,,Scattered Clouds,260,2011-10-18 02:30:00
4:00 AM,41.0,37.4,87,29.86,6.2,West,10.4,-,N/A,,Partly Cloudy,260,2011-10-18 03:00:00
4:30 AM,42.8,37.4,81,29.86,6.2,WSW,13.8,-,N/A,,Partly Cloudy,250,2011-10-18 03:30:00
5:00 AM,42.8,39.2,87,29.89,6.2,West,13.8,-,N/A,,Partly Cloudy,260,2011-10-18 04:00:00
5:30 AM,41.0,39.2,93,29.89,6.2,West,13.8,-,N/A,,Partly Cloudy,260,2011-10-18 04:30:00
6:00 AM,41.0,37.4,87,29.89,6.2,WSW,12.7,-,N/A,,Partly Cloudy,250,2011-10-18 05:00:00
6:30 AM,41.0,37.4,87,29.89,6.2,WSW,10.4,-,N/A,,Partly Cloudy,250,2011-10-18 05:30:00
7:00 AM,41,37,82,29.93,25,West,8.9,,,,Scattered Clouds,260,2011-10-18 06:00:00
7:00 AM,41.0,37.4,87,29.89,6.2,West,9.2,-,N/A,,Partly Cloudy,260,2011-10-18 06:00:00
7:30 AM,41.0,37.4,87,29.89,6.2,WSW,6.9,-,N/A,,Partly Cloudy,250,2011-10-18 06:30:00
8:00 AM,39.2,37.4,93,29.92,6.2,WSW,8.1,-,N/A,,Partly Cloudy,250,2011-10-18 07:00:00
8:30 AM,41.0,37.4,87,29.92,6.2,WSW,8.1,-,N/A,,Partly Cloudy,250,2011-10-18 07:30:00
9:00 AM,42.8,39.2,87,29.92,6.2,West,11.5,-,N/A,,Partly Cloudy,260,2011-10-18 08:00:00
9:30 AM,44.6,39.2,81,29.92,6.2,West,13.8,-,N/A,,Partly Cloudy,260,2011-10-18 08:30:00
10:00 AM,44.6,41.0,87,29.92,6.2,West,12.7,-,N/A,,Partly Cloudy,260,2011-10-18 09:00:00
10:30 AM,46.4,41.0,81,29.92,6.2,West,15.0,-,N/A,,Partly Cloudy,260,2011-10-18 09:30:00
11:00 AM,48.2,41.0,76,29.95,6.2,WSW,13.8,-,N/A,,Partly Cloudy,250,2011-10-18 10:00:00
11:30 AM,50.0,41.0,71,29.95,6.2,West,13.8,-,N/A,,Partly Cloudy,260,2011-10-18 10:30:00
12:00 PM,50.0,39.2,66,29.95,6.2,West,19.6,-,N/A,,Partly Cloudy,270,2011-10-18 11:00:00
12:30 PM,48.2,41.0,76,29.95,6.2,West,17.3,-,N/A,,Scattered Clouds,270,2011-10-18 11:30:00
1:00 PM,51,39,53,29.97,19,West,17.9,,,,Partly Cloudy,280,2011-10-18 12:00:00
1:00 PM,50.0,39.2,66,29.95,6.2,West,17.3,-,N/A,,Scattered Clouds,280,2011-10-18 12:00:00
1:30 PM,50.0,41.0,71,29.95,6.2,West,17.3,-,N/A,,Scattered Clouds,270,2011-10-18 12:30:00
2:00 PM,48.2,42.8,82,29.95,6.2,WNW,21.9,-,N/A,,Scattered Clouds,300,2011-10-18 13:00:00
2:30 PM,48.2,42.8,82,29.95,6.2,West,16.1,-,N/A,,Scattered Clouds,280,2011-10-18 13:30:00
3:00 PM,50.0,41.0,71,29.95,6.2,WNW,20.7,-,N/A,,Scattered Clouds,290,2011-10-18 14:00:00
3:30 PM,50.0,41.0,71,29.95,6.2,West,17.3,-,N/A,,Partly Cloudy,280,2011-10-18 14:30:00
4:00 PM,50.0,41.0,71,29.95,6.2,West,16.1,-,N/A,,Partly Cloudy,270,2011-10-18 15:00:00
4:30 PM,50.0,41.0,71,29.95,6.2,West,17.3,-,N/A,Rain,Light Rain Showers,270,2011-10-18 15:30:00
5:00 PM,50.0,41.0,71,29.95,6.2,WNW,16.1,-,N/A,,Partly Cloudy,290,2011-10-18 16:00:00
5:30 PM,50.0,41.0,71,29.95,6.2,West,17.3,-,N/A,,Scattered Clouds,280,2011-10-18 16:30:00
6:00 PM,48.2,42.8,82,29.95,6.2,WNW,15.0,-,N/A,Rain,Light Rain Showers,290,2011-10-18 17:00:00
6:30 PM,46.4,42.8,87,29.98,6.2,West,10.4,-,N/A,,Scattered Clouds,280,2011-10-18 17:30:00
7:00 PM,46,41,77,30.00,2,West,11.2,,,Rain,Light Rain Showers,270,2011-10-18 18:00:00
7:00 PM,46.4,41.0,81,29.98,6.2,West,11.5,-,N/A,,Partly Cloudy,270,2011-10-18 18:00:00
7:30 PM,44.6,41.0,87,29.98,6.2,West,9.2,-,N/A,,Partly Cloudy,260,2011-10-18 18:30:00
8:00 PM,44.6,41.0,87,29.98,6.2,West,8.1,-,N/A,,Partly Cloudy,260,2011-10-18 19:00:00
8:30 PM,44.6,41.0,87,29.98,6.2,West,12.7,-,N/A,,Partly Cloudy,280,2011-10-18 19:30:00
9:00 PM,44.6,41.0,87,30.01,6.2,WNW,13.8,-,N/A,,Partly Cloudy,290,2011-10-18 20:00:00
9:30 PM,44.6,41.0,87,30.01,6.2,West,11.5,-,N/A,,Partly Cloudy,280,2011-10-18 20:30:00
10:00 PM,44.6,39.2,81,30.01,6.2,West,12.7,-,N/A,,Partly Cloudy,280,2011-10-18 21:00:00
10:30 PM,44.6,41.0,87,30.04,6.2,West,11.5,-,N/A,,Partly Cloudy,280,2011-10-18 21:30:00
11:00 PM,42.8,41.0,93,30.06,6.2,NW,16.1,-,N/A,Rain,Light Rain Showers,310,2011-10-18 22:00:00
11:30 PM,42.8,39.2,87,30.04,6.2,WNW,12.7,-,N/A,,Mostly Cloudy,300,2011-10-18 22:30:00